sat.trackr.live / text

‹ back to catalog

2025-013A

NORAD 62729 · 2025-013A

PAYLOAD ACTIVE UNKNOWN

§ Identity

Operator
Country
PRC
Launch date
2025-01-20
Launch site
JSC
Launch vehicle
Mass (kg)
RCS (m²)

External: N2YO · Heavens-Above · Gunter

§ Orbital elements

Epoch: 2026-09-22T23:11:00.448224Z

Period
93.47 min
Inclination
97.6389°
Eccentricity
0.0007361
Mean motion
15.40571954 rev/d
Perigee alt
439.4 km
Apogee alt
449.4 km
Semi-major
6,822.6 km
B*
6.6046e-4
RAAN
88.5634°
Arg perigee
306.8048°
Mean anomaly
53.2522°
Rev number
9,298

§ Raw data

2025-013A1 62729U 25013A   26265.96597741  .00026847  00000+0  66046-3 0  99972 62729  97.6389  88.5634 0007361 306.8048  53.2522 15.40571954 92988

JSON: /api/v1/satellites/62729 · /tle

For live sub-satellite position, see the globe view (requires WebGL).

§ Visibility from observer

Set your observer location to see the next 7 days of passes ≥ 10°. The values pass through the URL so the page stays shareable.

No JS? Fill the form by hand. The geolocation button needs JavaScript.